Location: Unspecified
(0.0000°N, 0.0000°E)
Time: 00:45:20
(UTC+00:00)

Envisat - Pass Details

Date: 27 June 2022
Orbit: 764 x 765 km, 98.2° (Epoch: 28 June)

Event Time Altitude Azimuth Distance (km) Brightness Sun altitude
Rises 03:27:36 0° 32° (NNE) 3,214 7.0 -35.2°
Reaches altitude 10° 03:30:11 10° 44° (NE) 2,291 6.2 -34.6°
Maximum altitude 03:34:29 28° 102° (ESE) 1,392 4.6 -33.7°
Enters shadow 03:34:54 28° 111° (ESE) 1,404 4.6 -33.6°
